Flag Weather past 2 weeks in Homburg (Saar), Saarland, Germany

Now
41 °F

Passing clouds.


Feels Like: 34 °F
Forecast: 35 / 43 °F
Wind: 12 mph from Northeast

Location: Saarbruecken / Ensheim

Current Time: Nov 20, 2014 at 11:13:21 PM

Latest Report: Nov 20, 2014 at 10:20 PM


Visibility: N/A

Pressure: 30.21 "Hg

Humidity: 93%

Dew point: 39 °F

Location of Homburg (Saar)Location

Historic Weather in Homburg (Saar) — Graph

°F

Homburg (Saar) temperature yesterday

Maximum temperature yesterday: 48 °F (at 12:50 PM)
Minimum temperature yesterday: 39 °F (at 7:50 PM)
Average temperature yesterday: 43 °F

Past Weeks' High & Low Weather Summary

 TemperatureHumidityPressure
High55 °F (Nov 8, 2:20 PM)100% (Nov 5, 10:50 PM)30.27 "Hg (Nov 5, 10:50 PM)
Low30 °F (Nov 7, 4:50 AM)67% (Nov 8, 2:20 PM)29.53 "Hg (Nov 15, 3:20 AM)
Average45 °F92%29.81 "Hg
* Reported Nov 5 9:20 PM — Nov 20 9:50 PM, Homburg (Saar), Weather by CustomWeather, © 2014

Note: Actual official high and low records may vary slightly from our data, if they occured in-between our weather recording intervals... More about our weather records

Advertising

Homburg (Saar) weather history for previous 24 hours

 ConditionsComfort  
Time TempWeatherWind HumidityBarometerVisibility
9:50 PM
Nov 20
41 °FPassing clouds.10 mph93%30.24 "HgN/A
9:20 PM39 °FClear.8 mph93%30.21 "Hg10 mi
8:50 PM41 °FPassing clouds.8 mph93%30.24 "HgN/A
8:20 PM41 °FPassing clouds.8 mph93%30.24 "HgN/A
7:50 PM41 °FPartly cloudy.10 mph93%30.24 "HgN/A
7:20 PM43 °FPartly cloudy.9 mph87%30.21 "HgN/A
6:50 PM43 °FPartly cloudy.10 mph87%30.24 "HgN/A
6:20 PM43 °FPartly cloudy.10 mph87%30.24 "HgN/A
5:50 PM43 °FPartly cloudy.12 mph87%30.21 "HgN/A
5:20 PM43 °FPartly cloudy.12 mph87%30.21 "HgN/A
4:50 PM43 °FPassing clouds.9 mph93%30.21 "HgN/A
4:20 PM43 °FPartly sunny.9 mph93%30.24 "HgN/A
3:20 PM45 °FBroken clouds.9 mph87%30.24 "HgN/A
2:50 PM45 °FPartly sunny.8 mph87%30.24 "HgN/A
2:20 PM45 °FBroken clouds.8 mph87%30.24 "HgN/A
1:50 PM46 °FBroken clouds.7 mph82%30.24 "HgN/A
1:20 PM46 °FBroken clouds.8 mph82%30.24 "HgN/A
12:50 PM46 °FBroken clouds.10 mph82%30.24 "HgN/A
12:20 PM45 °FBroken clouds.12 mph93%30.24 "HgN/A
11:50 AM45 °FPartly sunny.10 mph87%30.24 "HgN/A
11:20 AM45 °FPartly sunny.10 mph93%30.24 "HgN/A
10:50 AM43 °FPartly sunny.10 mph100%30.27 "Hg6 mi
10:20 AM43 °FPartly sunny.10 mph100%30.27 "Hg5 mi
9:20 AM41 °FFog.9 mph100%30.27 "Hg3 mi
8:50 AM41 °FFog.8 mph100%30.27 "Hg1 mi
8:20 AM39 °FFog.9 mph100%30.27 "Hg1 mi
7:50 AM39 °FFog.7 mph100%30.27 "Hg1 mi
7:20 AM39 °FFog.8 mph100%30.24 "Hg1 mi
6:50 AM39 °FFog.8 mph100%30.24 "Hg1 mi
6:20 AM39 °FFog.7 mph100%30.24 "Hg1 mi
5:50 AM39 °FFog.7 mph100%30.24 "Hg1 mi
5:20 AM39 °FFog.6 mph100%30.24 "Hg1 mi
4:50 AM39 °FFog.5 mph100%30.24 "Hg0 mi
4:20 AM39 °FFog.6 mph100%30.24 "Hg0 mi
3:50 AM39 °FFog.6 mph100%30.24 "Hg0 mi
3:20 AM39 °FFog.6 mph100%30.24 "Hg0 mi
2:50 AM39 °FFog.5 mph100%30.24 "Hg0 mi
1:50 AM39 °FFog.5 mph100%30.24 "Hg0 mi
1:20 AM39 °FFog.3 mph100%30.24 "Hg0 mi
12:50 AM39 °FFog.6 mph100%30.24 "Hg0 mi
12:20 AM39 °FFog.6 mph100%30.24 "Hg0 mi
11:50 PM
Nov 19
39 °FFog.6 mph100%30.24 "Hg0 mi
11:20 PM39 °FFog.7 mph100%30.24 "Hg0 mi
Weather by CustomWeather, © 2014

See weather overviewHow to use our weather pages